,,PA_Meas_PMT16A,,PR_Meas_QMR101_102,,RH_Meas_QMH101,,SR_Meas_QMS101,,TA_Meas_QMH101,,GenWind,,GenWind,
time,status,PA,status,PR,status,RH,status,SR,status,TA,status,DirAvg,status,SpdAvg,
2013-01-07, 00:00:04,VALID,918.267,VALID,0,VALID,91.6335,VALID,0,VALID,19.7823,VALID,38,VALID,0,
2013-01-07, 00:01:04,VALID,918.243,VALID,0,VALID,91.5039,VALID,0,VALID,19.7823,VALID,38,VALID,0,
2013-01-07, 00:02:04,VALID,918.236,VALID,0,VALID,91.481,VALID,0,VALID,19.7823,VALID,38,VALID,0,
2013-01-07, 00:03:04,VALID,918.251,VALID,0,VALID,91.6182,VALID,0,VALID,19.7628,VALID,38,VALID,0,
2013-01-07, 00:04:04,VALID,918.242,VALID,0,VALID,91.6411,VALID,0,VALID,19.7643,VALID,38,VALID,0,
2013-01-07, 00:05:04,VALID,918.237,VALID,0,VALID,91.7631,VALID,0,VALID,19.7253,VALID,38,VALID,0,
2013-01-07, 00:06:04,VALID,918.309,VALID,0,VALID,91.9384,VALID,0,VALID,19.6848,VALID,29,VALID,0,
2013-01-07, 00:07:04,VALID,918.293,VALID,0,VALID,92.0756,VALID,0,VALID,19.6653,VALID,29,VALID,0,
2013-01-07, 00:08:04,VALID,918.281,VALID,0,VALID,92.1519,VALID,0,VALID,19.6653,VALID,29,VALID,0,
2013-01-07, 00:09:04,VALID,918.293,VALID,0,VALID,92.1519,VALID,0,VALID,19.6458,VALID,29,VALID,0,
2013-01-07, 00:10:04,VALID,918.273,VALID,0,VALID,92.1671,VALID,0,VALID,19.6458,VALID,29,VALID,0,
2013-01-07, 00:11:04,VALID,918.243,VALID,0,VALID,92.2357,VALID,0,VALID,19.6668,VALID,29,VALID,0,
2013-01-07, 00:12:04,VALID,918.237,VALID,0,VALID,92.251,VALID,0,VALID,19.6458,VALID,29,VALID,0,
2013-01-07, 00:13:04,VALID,918.235,VALID,0,VALID,92.2128,VALID,0,VALID,19.6458,VALID,31,VALID,0,
2013-01-07, 00:14:04,VALID,918.218,VALID,0,VALID,92.19,VALID,0.107441,VALID,19.6458,VALID,39,VALID,0,
2013-01-07, 00:15:04,VALID,918.25,VALID,0,VALID,92.1976,VALID,0,VALID,19.6458,VALID,34,VALID,0,
2013-01-07, 00:16:04,VALID,918.254,VALID,0,VALID,92.2052,VALID,0,VALID,19.6458,VALID,34,VALID,0,
2013-01-07, 00:17:04,VALID,918.25,VALID,0,VALID,92.19,VALID,0,VALID,19.6458,VALID,34,VALID,0,
2013-01-07, 00:18:04,VALID,918.214,VALID,0,VALID,92.1671,VALID,0.107441,VALID,19.6443,VALID,34,VALID,0,
2013-01-07, 00:19:04,VALID,918.255,VALID,0,VALID,92.1976,VALID,0.107441,VALID,19.6248,VALID,34,VALID,0,
2013-01-07, 00:20:04,VALID,918.245,VALID,0,VALID,92.2586,VALID,0.107441,VALID,19.6053,VALID,34,VALID,0,
2013-01-07, 00:21:04,VALID,918.264,VALID,0,VALID,92.3806,VALID,0.107441,VALID,19.5663,VALID,34,VALID,0,
2013-01-07, 00:22:04,VALID,918.256,VALID,0,VALID,92.4797,VALID,0.107441,VALID,19.5663,VALID,34,VALID,0,
2013-01-07, 00:23:04,VALID,918.287,VALID,0,VALID,92.5254,VALID,0.107441,VALID,19.5273,VALID,34,VALID,0,
2013-01-07, 00:24:04,VALID,918.275,VALID,0,VALID,92.6016,VALID,0.107441,VALID,19.5078,VALID,34,VALID,0,
2013-01-07, 00:25:04,VALID,918.276,VALID,0,VALID,92.7541,VALID,0.107441,VALID,19.4688,VALID,34,VALID,0,
2013-01-07, 00:26:04,VALID,918.309,VALID,0,VALID,92.9447,VALID,0.107441,VALID,19.4493,VALID,34,VALID,0,
2013-01-07, 00:27:04,VALID,918.315,VALID,0,VALID,93.0285,VALID,0.107441,VALID,19.4298,VALID,34,VALID,0,
2013-01-07, 00:28:04,VALID,918.293,VALID,0,VALID,93.0667,VALID,0.107441,VALID,19.4103,VALID,34,VALID,0,
2013-01-07, 00:29:04,VALID,918.323,VALID,0,VALID,93.2039,VALID,0.107441,VALID,19.3908,VALID,34,VALID,0,
2013-01-07, 00:30:04,VALID,918.288,VALID,0,VALID,93.2268,VALID,0.107441,VALID,19.3908,VALID,34,VALID,0,
2013-01-07, 00:31:04,VALID,918.341,VALID,0,VALID,93.2115,VALID,0.107441,VALID,19.3908,VALID,34,VALID,0,
2013-01-07, 00:32:04,VALID,918.312,VALID,0,VALID,93.1886,VALID,0,VALID,19.3923,VALID,34,VALID,0,
2013-01-07, 00:33:04,VALID,918.309,VALID,0,VALID,93.1734,VALID,0,VALID,19.3728,VALID,34,VALID,0,
2013-01-07, 00:34:04,VALID,918.312,VALID,0,VALID,93.1276,VALID,0,VALID,19.3728,VALID,34,VALID,0,
2013-01-07, 00:35:04,VALID,918.29,VALID,0,VALID,93.2191,VALID,0,VALID,19.3728,VALID,34,VALID,0,
2013-01-07, 00:36:04,VALID,918.282,VALID,0,VALID,93.2191,VALID,0,VALID,19.3923,VALID,34,VALID,0,
2013-01-07, 00:37:04,VALID,918.279,VALID,0,VALID,93.1048,VALID,0,VALID,19.3728,VALID,34,VALID,0,
2013-01-07, 00:38:04,VALID,918.277,VALID,0,VALID,92.9981,VALID,0,VALID,19.3742,VALID,34,VALID,0,
2013-01-07, 00:39:04,VALID,918.294,VALID,0,VALID,93.1581,VALID,0,VALID,19.3728,VALID,34,VALID,0,
2013-01-07, 00:40:04,VALID,918.298,VALID,0,VALID,93.2496,VALID,0,VALID,19.3533,VALID,34,VALID,0,
2013-01-07, 00:41:04,VALID,918.276,VALID,0,VALID,93.4021,VALID,0,VALID,19.3338,VALID,34,VALID,0,
2013-01-07, 00:42:04,VALID,918.257,VALID,0,VALID,93.4097,VALID,0,VALID,19.3533,VALID,34,VALID,0,
2013-01-07, 00:43:04,VALID,918.237,VALID,0,VALID,93.4173,VALID,0,VALID,19.3143,VALID,34,VALID,0,
2013-01-07, 00:44:04,VALID,918.204,VALID,0,VALID,93.4631,VALID,0,VALID,19.3143,VALID,34,VALID,0,
2013-01-07, 00:45:04,VALID,918.17,VALID,0,VALID,93.4478,VALID,0,VALID,19.3143,VALID,34,VALID,0,
2013-01-07, 00:46:05,VALID,918.154,VALID,0,VALID,93.364,VALID,0,VALID,19.2948,VALID,34,VALID,0,
2013-01-07, 00:47:05,VALID,918.159,VALID,0,VALID,93.3259,VALID,0,VALID,19.2753,VALID,34,VALID,0,
2013-01-07, 00:48:05,VALID,918.153,VALID,0,VALID,93.3716,VALID,0,VALID,19.2753,VALID,34,VALID,0,
2013-01-07, 00:49:05,VALID,918.13,VALID,0,VALID,93.3182,VALID,0,VALID,19.3143,VALID,34,VALID,0,
2013-01-07, 00:50:05,VALID,918.125,VALID,0,VALID,93.2344,VALID,0,VALID,19.3338,VALID,34,VALID,0,
2013-01-07, 00:51:05,VALID,918.128,VALID,0,VALID,93.1658,VALID,0,VALID,19.3338,VALID,34,VALID,0,
2013-01-07, 00:52:05,VALID,918.115,VALID,0,VALID,93.0133,VALID,0,VALID,19.3143,VALID,34,VALID,0,
2013-01-07, 00:53:05,VALID,918.115,VALID,0,VALID,92.9218,VALID,0,VALID,19.3352,VALID,34,VALID,0,
2013-01-07, 00:54:05,VALID,918.073,VALID,0,VALID,92.8532,VALID,0,VALID,19.2948,VALID,34,VALID,0,
2013-01-07, 00:55:05,VALID,918.091,VALID,0,VALID,92.8532,VALID,0,VALID,19.2962,VALID,34,VALID,0,
2013-01-07, 00:56:05,VALID,918.06,VALID,0,VALID,92.9752,VALID,0,VALID,19.2753,VALID,34,VALID,0,
2013-01-07, 00:57:05,VALID,918.034,VALID,0,VALID,93.0514,VALID,0,VALID,19.2767,VALID,34,VALID,0,
2013-01-07, 00:58:05,VALID,918.047,VALID,0,VALID,93.0667,VALID,0,VALID,19.2558,VALID,34,VALID,0,
2013-01-07, 00:59:05,VALID,918.037,VALID,0,VALID,93.0285,VALID,0,VALID,19.2767,VALID,34,VALID,0,
2013-01-07, 01:00:05,VALID,917.959,VALID,0,VALID,93.0667,VALID,0.107441,VALID,19.2363,VALID,34,VALID,0,
2013-01-07, 01:01:05,VALID,917.965,VALID,0,VALID,93.0972,VALID,0,VALID,19.2363,VALID,34,VALID,0,
2013-01-07, 01:02:05,VALID,917.936,VALID,0,VALID,93.0362,VALID,0,VALID,19.2168,VALID,34,VALID,0,
2013-01-07, 01:03:05,VALID,917.929,VALID,0,VALID,93.0743,VALID,0,VALID,19.1973,VALID,34,VALID,0,
2013-01-07, 01:04:05,VALID,917.917,VALID,0,VALID,93.1124,VALID,0,VALID,19.2182,VALID,34,VALID,0,
2013-01-07, 01:05:05,VALID,917.863,VALID,0,VALID,93.0362,VALID,0,VALID,19.2182,VALID,34,VALID,0,
2013-01-07, 01:06:05,VALID,917.884,VALID,0,VALID,92.9218,VALID,0,VALID,19.1778,VALID,34,VALID,0,
2013-01-07, 01:07:05,VALID,917.874,VALID,0,VALID,92.9142,VALID,0,VALID,19.1778,VALID,34,VALID,0,
2013-01-07, 01:08:05,VALID,917.844,VALID,0,VALID,93.0209,VALID,0,VALID,19.1973,VALID,34,VALID,0,
2013-01-07, 01:09:05,VALID,917.883,VALID,0,VALID,92.9066,VALID,0,VALID,19.2182,VALID,34,VALID,0,
2013-01-07, 01:10:05,VALID,917.859,VALID,0,VALID,92.8837,VALID,0,VALID,19.2377,VALID,34,VALID,0,
2013-01-07, 01:11:05,VALID,917.815,VALID,0,VALID,92.7693,VALID,0,VALID,19.2168,VALID,34,VALID,0,
2013-01-07, 01:12:05,VALID,917.79,VALID,0,VALID,92.594,VALID,0,VALID,19.2377,VALID,34,VALID,0,
2013-01-07, 01:13:05,VALID,917.772,VALID,0,VALID,92.411,VALID,0,VALID,19.2377,VALID,34,VALID,0,
2013-01-07, 01:14:05,VALID,917.717,VALID,0,VALID,92.1976,VALID,0,VALID,19.2377,VALID,44,VALID,0,
2013-01-07, 01:15:05,VALID,917.739,VALID,0,VALID,92.1137,VALID,0,VALID,19.2377,VALID,75,VALID,0,
2013-01-07, 01:16:05,VALID,917.708,VALID,0,VALID,91.9841,VALID,0,VALID,19.2363,VALID,129,VALID,0,
2013-01-07, 01:17:05,VALID,917.702,VALID,0,VALID,91.4657,VALID,0,VALID,19.2558,VALID,47,VALID,0,
2013-01-07, 01:18:05,VALID,917.694,VALID,0,VALID,91.1379,VALID,0,VALID,19.2767,VALID,33,VALID,0,
2013-01-07, 01:19:05,VALID,917.662,VALID,0,VALID,91.0617,VALID,0,VALID,19.2363,VALID,33,VALID,0,
2013-01-07, 01:20:05,VALID,917.638,VALID,0,VALID,90.9397,VALID,0,VALID,19.2363,VALID,126,VALID,0,
2013-01-07, 01:21:05,VALID,917.643,VALID,0,VALID,90.5967,VALID,0,VALID,19.3157,VALID,70,VALID,0,
2013-01-07, 01:22:05,VALID,917.593,VALID,0,VALID,90.429,VALID,0,VALID,19.3157,VALID,70,VALID,0,
2013-01-07, 01:23:05,VALID,917.585,VALID,0,VALID,90.2994,VALID,0,VALID,19.3157,VALID,70,VALID,0,
2013-01-07, 01:24:05,VALID,917.586,VALID,0,VALID,90.0478,VALID,0,VALID,19.3157,VALID,70,VALID,0,
2013-01-07, 01:25:05,VALID,917.574,VALID,0,VALID,90.0859,VALID,0,VALID,19.2753,VALID,70,VALID,0,
2013-01-07, 01:26:05,VALID,917.537,VALID,0,VALID,90.2079,VALID,0,VALID,19.2962,VALID,70,VALID,0,
2013-01-07, 01:27:05,VALID,917.522,VALID,0,VALID,90.1621,VALID,0,VALID,19.2962,VALID,70,VALID,0,
2013-01-07, 01:28:05,VALID,917.536,VALID,0,VALID,90.0478,VALID,0,VALID,19.2962,VALID,70,VALID,0,
2013-01-07, 01:29:05,VALID,917.531,VALID,0,VALID,90.0554,VALID,0,VALID,19.2767,VALID,70,VALID,0,
2013-01-07, 01:30:05,VALID,917.517,VALID,0,VALID,90.124,VALID,0,VALID,19.2767,VALID,70,VALID,0,
2013-01-07, 01:31:05,VALID,917.477,VALID,0,VALID,90.0935,VALID,0,VALID,19.2572,VALID,70,VALID,0,
2013-01-07, 01:32:05,VALID,917.46,VALID,0,VALID,90.1164,VALID,0,VALID,19.2377,VALID,70,VALID,0,
2013-01-07, 01:33:05,VALID,917.445,VALID,0,VALID,90.4213,VALID,0,VALID,19.1973,VALID,70,VALID,0,
2013-01-07, 01:34:05,VALID,917.437,VALID,0,VALID,90.7034,VALID,0,VALID,19.1778,VALID,70,VALID,0,
2013-01-07, 01:35:05,VALID,917.419,VALID,0,VALID,90.9245,VALID,0.107441,VALID,19.1373,VALID,70,VALID,0,
2013-01-07, 01:36:05,VALID,917.406,VALID,0,VALID,90.9321,VALID,0,VALID,19.1388,VALID,70,VALID,0,
2013-01-07, 01:37:05,VALID,917.376,VALID,0,VALID,90.9245,VALID,0,VALID,19.1193,VALID,70,VALID,0,
2013-01-07, 01:38:05,VALID,917.332,VALID,0,VALID,91.1761,VALID,0,VALID,19.0998,VALID,70,VALID,0,
2013-01-07, 01:39:05,VALID,917.338,VALID,0,VALID,91.1761,VALID,0,VALID,19.0998,VALID,70,VALID,0,
2013-01-07, 01:40:05,VALID,917.36,VALID,0,VALID,91.4048,VALID,0.107441,VALID,19.0788,VALID,70,VALID,0,
2013-01-07, 01:41:05,VALID,917.341,VALID,0,VALID,91.6487,VALID,0,VALID,19.0803,VALID,70,VALID,0,
2013-01-07, 01:42:05,VALID,917.339,VALID,0,VALID,91.8774,VALID,0.107441,VALID,19.0608,VALID,70,VALID,0,
2013-01-07, 01:43:05,VALID,917.318,VALID,0,VALID,91.9536,VALID,0,VALID,19.0803,VALID,70,VALID,0,
2013-01-07, 01:44:05,VALID,917.288,VALID,0,VALID,92.1061,VALID,0,VALID,19.0413,VALID,70,VALID,0,
2013-01-07, 01:45:05,VALID,917.304,VALID,0,VALID,92.3958,VALID,0,VALID,19.0023,VALID,70,VALID,0,
2013-01-07, 01:46:05,VALID,917.286,VALID,0,VALID,92.5178,VALID,0,VALID,18.9633,VALID,70,VALID,0,
2013-01-07, 01:47:05,VALID,917.288,VALID,0,VALID,92.8456,VALID,0.107441,VALID,18.9438,VALID,70,VALID,0,
2013-01-07, 01:48:05,VALID,917.28,VALID,0,VALID,92.9599,VALID,0,VALID,18.9452,VALID,46,VALID,0,
2013-01-07, 01:49:05,VALID,917.282,VALID,0,VALID,93.1581,VALID,0,VALID,18.9257,VALID,37,VALID,0,
2013-01-07, 01:50:05,VALID,917.259,VALID,0,VALID,93.2115,VALID,0,VALID,18.8867,VALID,36,VALID,0,
2013-01-07, 01:51:05,VALID,917.251,VALID,0,VALID,93.3487,VALID,0,VALID,18.9062,VALID,51,VALID,0,
2013-01-07, 01:52:05,VALID,917.218,VALID,0,VALID,93.4478,VALID,0,VALID,18.8853,VALID,32,VALID,0,
2013-01-07, 01:53:05,VALID,917.256,VALID,0,VALID,93.4859,VALID,0,VALID,18.9062,VALID,32,VALID,0,
2013-01-07, 01:54:05,VALID,917.235,VALID,0,VALID,93.5927,VALID,0,VALID,18.8853,VALID,32,VALID,0,
2013-01-07, 01:55:05,VALID,917.244,VALID,0,VALID,93.6308,VALID,0,VALID,18.9048,VALID,32,VALID,0,
2013-01-07, 01:56:05,VALID,917.229,VALID,0,VALID,93.6003,VALID,0,VALID,18.9257,VALID,32,VALID,0,
2013-01-07, 01:57:05,VALID,917.203,VALID,0,VALID,93.6918,VALID,0,VALID,18.9062,VALID,32,VALID,0,
2013-01-07, 01:58:05,VALID,917.182,VALID,0,VALID,93.6842,VALID,0,VALID,18.9257,VALID,35,VALID,0,
2013-01-07, 01:59:05,VALID,917.154,VALID,0,VALID,93.6155,VALID,0,VALID,18.9257,VALID,31,VALID,0,
2013-01-07, 02:00:05,VALID,917.172,VALID,0,VALID,93.6537,VALID,0,VALID,18.9062,VALID,31,VALID,0,
2013-01-07, 02:01:05,VALID,917.148,VALID,0,VALID,93.6308,VALID,0,VALID,18.9062,VALID,31,VALID,0,
2013-01-07, 02:02:05,VALID,917.11,VALID,0,VALID,93.707,VALID,0,VALID,18.9062,VALID,40,VALID,0,
2013-01-07, 02:03:05,VALID,917.123,VALID,0,VALID,93.6079,VALID,0,VALID,18.9048,VALID,35,VALID,0,
2013-01-07, 02:04:05,VALID,917.12,VALID,0,VALID,93.6994,VALID,0,VALID,18.9647,VALID,36,VALID,0,
2013-01-07, 02:05:05,VALID,917.1,VALID,0,VALID,93.6003,VALID,0,VALID,18.9842,VALID,36,VALID,0,
2013-01-07, 02:06:05,VALID,917.104,VALID,0,VALID,93.3868,VALID,0,VALID,19.0427,VALID,38,VALID,0,
2013-01-07, 02:07:05,VALID,917.096,VALID,0,VALID,93.1658,VALID,0,VALID,19.0817,VALID,45,VALID,0,
2013-01-07, 02:08:05,VALID,917.057,VALID,0,VALID,92.9904,VALID,0,VALID,19.1012,VALID,37,VALID,0,
2013-01-07, 02:09:05,VALID,917.07,VALID,0,VALID,92.9447,VALID,0,VALID,19.1402,VALID,39,VALID,0,
2013-01-07, 02:10:05,VALID,917.05,VALID,0,VALID,92.9142,VALID,0,VALID,19.1402,VALID,35,VALID,0,
2013-01-07, 02:11:05,VALID,917.047,VALID,0,VALID,92.9371,VALID,0,VALID,19.1792,VALID,35,VALID,0,
2013-01-07, 02:12:05,VALID,916.989,VALID,0,VALID,92.9294,VALID,0,VALID,19.1987,VALID,43,VALID,0,
2013-01-07, 02:13:05,VALID,917.025,VALID,0,VALID,92.8913,VALID,0,VALID,19.1987,VALID,50,VALID,0,
2013-01-07, 02:14:05,VALID,917.04,VALID,0,VALID,92.9066,VALID,0,VALID,19.1987,VALID,46,VALID,0,
2013-01-07, 02:15:05,VALID,917.024,VALID,0,VALID,92.838,VALID,0,VALID,19.1987,VALID,42,VALID,0,
2013-01-07, 02:16:05,VALID,917.006,VALID,0,VALID,92.8608,VALID,0,VALID,19.2182,VALID,42,VALID,0,
2013-01-07, 02:17:05,VALID,916.997,VALID,0,VALID,92.8608,VALID,0,VALID,19.2377,VALID,40,VALID,0,
2013-01-07, 02:18:05,VALID,916.979,VALID,0,VALID,92.777,VALID,0,VALID,19.2377,VALID,43,VALID,0,
2013-01-07, 02:19:05,VALID,916.992,VALID,0,VALID,92.5788,VALID,0,VALID,19.2767,VALID,26,VALID,0,
2013-01-07, 02:20:05,VALID,916.988,VALID,0,VALID,92.3272,VALID,0,VALID,19.2753,VALID,26,VALID,0,
2013-01-07, 02:21:05,VALID,916.955,VALID,0,VALID,92.1747,VALID,0,VALID,19.2962,VALID,44,VALID,0,
2013-01-07, 02:22:05,VALID,916.945,VALID,0,VALID,92.0451,VALID,0,VALID,19.3143,VALID,44,VALID,0,
2013-01-07, 02:23:05,VALID,916.91,VALID,0,VALID,91.7021,VALID,0,VALID,19.3338,VALID,32,VALID,0,
2013-01-07, 02:24:05,VALID,916.95,VALID,0,VALID,91.5115,VALID,0,VALID,19.3937,VALID,28,VALID,0,
2013-01-07, 02:25:05,VALID,916.965,VALID,0,VALID,91.237,VALID,0,VALID,19.4118,VALID,17,VALID,0,
2013-01-07, 02:26:05,VALID,916.965,VALID,0,VALID,91.0083,VALID,0,VALID,19.4523,VALID,24,VALID,0,
2013-01-07, 02:27:05,VALID,916.933,VALID,0,VALID,90.6348,VALID,0,VALID,19.4508,VALID,23,VALID,0,
2013-01-07, 02:28:05,VALID,916.902,VALID,0,VALID,90.4213,VALID,0,VALID,19.4898,VALID,23,VALID,0,
2013-01-07, 02:29:05,VALID,916.89,VALID,0,VALID,90.1774,VALID,0,VALID,19.5288,VALID,42,VALID,0,
2013-01-07, 02:30:05,VALID,916.856,VALID,0,VALID,90.1621,VALID,0,VALID,19.5888,VALID,40,VALID,0,
2013-01-07, 02:31:05,VALID,916.821,VALID,0,VALID,90.0554,VALID,0,VALID,19.6278,VALID,35,VALID,0,
2013-01-07, 02:32:05,VALID,916.803,VALID,0,VALID,89.8572,VALID,0,VALID,19.6278,VALID,35,VALID,0,
2013-01-07, 02:33:05,VALID,916.776,VALID,0,VALID,89.9792,VALID,0,VALID,19.6068,VALID,4,VALID,0,
2013-01-07, 02:34:05,VALID,916.758,VALID,0,VALID,89.7124,VALID,0,VALID,19.6473,VALID,14,VALID,0,
2013-01-07, 02:35:05,VALID,916.724,VALID,0,VALID,89.1254,VALID,0,VALID,19.6458,VALID,22,VALID,0,
2013-01-07, 02:36:05,VALID,916.745,VALID,0,VALID,88.7747,VALID,0,VALID,19.6848,VALID,38,VALID,0,
2013-01-07, 02:37:05,VALID,916.669,VALID,0,VALID,88.6908,VALID,0,VALID,19.6848,VALID,38,VALID,0,
2013-01-07, 02:38:05,VALID,916.66,VALID,0,VALID,88.5002,VALID,0,VALID,19.7253,VALID,39,VALID,0,
2013-01-07, 02:39:05,VALID,916.609,VALID,0,VALID,87.8141,VALID,0,VALID,19.7433,VALID,53,VALID,0,
2013-01-07, 02:40:05,VALID,916.596,VALID,0,VALID,87.5168,VALID,0,VALID,19.8033,VALID,48,VALID,0,
2013-01-07, 02:41:05,VALID,916.555,VALID,0,VALID,87.4253,VALID,0,VALID,19.8213,VALID,36,VALID,0,
2013-01-07, 02:42:05,VALID,916.6,VALID,0,VALID,87.7226,VALID,0,VALID,19.8213,VALID,9,VALID,0,
2013-01-07, 02:43:05,VALID,916.547,VALID,0,VALID,87.6998,VALID,0,VALID,19.8213,VALID,23,VALID,0,
2013-01-07, 02:44:05,VALID,916.548,VALID,0,VALID,87.4863,VALID,0,VALID,19.8018,VALID,39,VALID,0,
2013-01-07, 02:45:05,VALID,916.498,VALID,0,VALID,86.1598,VALID,0,VALID,19.8213,VALID,352,VALID,0,
2013-01-07, 02:46:05,VALID,916.494,VALID,0,VALID,86.137,VALID,0,VALID,19.9398,VALID,42,VALID,0,
2013-01-07, 02:47:05,VALID,916.481,VALID,0,VALID,85.9083,VALID,0,VALID,19.9788,VALID,51,VALID,0,
2013-01-07, 02:48:05,VALID,916.452,VALID,0,VALID,86.1827,VALID,0,VALID,19.9968,VALID,36,VALID,0,
2013-01-07, 02:49:05,VALID,916.411,VALID,0,VALID,86.1294,VALID,0,VALID,19.9968,VALID,30,VALID,0,
2013-01-07, 02:50:05,VALID,916.404,VALID,0,VALID,85.9235,VALID,0,VALID,19.9968,VALID,22,VALID,0,
2013-01-07, 02:51:05,VALID,916.405,VALID,0,VALID,85.9769,VALID,0,VALID,19.9968,VALID,41,VALID,0,
2013-01-07, 02:52:05,VALID,916.395,VALID,0,VALID,86.1522,VALID,0,VALID,19.9773,VALID,42,VALID,0,
2013-01-07, 02:53:05,VALID,916.411,VALID,0,VALID,84.8562,VALID,0,VALID,20.0179,VALID,44,VALID,0,
2013-01-07, 02:54:05,VALID,916.399,VALID,0,VALID,84.9782,VALID,0,VALID,20.0569,VALID,36,VALID,0,
2013-01-07, 02:55:05,VALID,916.424,VALID,0,VALID,84.6962,VALID,0,VALID,20.0749,VALID,24,VALID,0,
2013-01-07, 02:56:05,VALID,916.365,VALID,0,VALID,85.024,VALID,0,VALID,20.1154,VALID,10,VALID,0,
2013-01-07, 02:57:05,VALID,916.327,VALID,0,VALID,85.3213,VALID,0,VALID,20.0749,VALID,43,VALID,0,
2013-01-07, 02:58:05,VALID,916.349,VALID,0,VALID,85.4661,VALID,0,VALID,20.0553,VALID,37,VALID,0,
2013-01-07, 02:59:05,VALID,916.323,VALID,0,VALID,85.5424,VALID,0,VALID,20.0358,VALID,31,VALID,0,
2013-01-07, 03:00:05,VALID,916.307,VALID,0,VALID,85.3289,VALID,0,VALID,20.0358,VALID,31,VALID,0,
2013-01-07, 03:01:05,VALID,916.311,VALID,0,VALID,85.1841,VALID,0,VALID,20.0358,VALID,50,VALID,0,
2013-01-07, 03:02:05,VALID,916.321,VALID,0,VALID,84.8715,VALID,0,VALID,20.0764,VALID,35,VALID,0,
2013-01-07, 03:03:05,VALID,916.33,VALID,0,VALID,85.4432,VALID,0,VALID,20.0553,VALID,9,VALID,0,
2013-01-07, 03:04:05,VALID,916.344,VALID,0,VALID,85.3746,VALID,0,VALID,20.0358,VALID,9,VALID,0,
2013-01-07, 03:05:05,VALID,916.355,VALID,0,VALID,85.9388,VALID,0,VALID,20.0358,VALID,25,VALID,0,
2013-01-07, 03:06:05,VALID,916.375,VALID,0,VALID,86.0074,VALID,0,VALID,19.9968,VALID,353,VALID,0,
2013-01-07, 03:07:05,VALID,916.339,VALID,0,VALID,86.4343,VALID,0,VALID,19.9773,VALID,25,VALID,0,
2013-01-07, 03:08:05,VALID,916.365,VALID,0,VALID,86.4877,VALID,0,VALID,19.9383,VALID,25,VALID,0,
2013-01-07, 03:09:05,VALID,916.337,VALID,0,VALID,86.541,VALID,0,VALID,19.9188,VALID,32,VALID,0,
2013-01-07, 03:10:05,VALID,916.323,VALID,0,VALID,86.8764,VALID,0,VALID,19.8993,VALID,33,VALID,0,
2013-01-07, 03:11:05,VALID,916.313,VALID,0,VALID,86.8841,VALID,0,VALID,19.8603,VALID,22,VALID,0,
2013-01-07, 03:12:05,VALID,916.326,VALID,0,VALID,86.6706,VALID,0,VALID,19.8408,VALID,22,VALID,0,
2013-01-07, 03:13:05,VALID,916.325,VALID,0,VALID,86.8155,VALID,0,VALID,19.8408,VALID,22,VALID,0,
2013-01-07, 03:14:05,VALID,916.328,VALID,0,VALID,85.8397,VALID,0,VALID,19.8603,VALID,44,VALID,0,
2013-01-07, 03:15:05,VALID,916.3,VALID,0,VALID,85.8473,VALID,0,VALID,19.9188,VALID,41,VALID,0,
2013-01-07, 03:16:05,VALID,916.284,VALID,0,VALID,85.5957,VALID,0,VALID,19.9578,VALID,23,VALID,0,
2013-01-07, 03:17:05,VALID,916.315,VALID,0,VALID,85.8625,VALID,0,VALID,19.9773,VALID,47,VALID,0,
2013-01-07, 03:18:05,VALID,916.327,VALID,0,VALID,85.3289,VALID,0,VALID,19.9758,VALID,47,VALID,0,
2013-01-07, 03:19:05,VALID,916.318,VALID,0,VALID,85.8015,VALID,0,VALID,19.9968,VALID,47,VALID,0,
2013-01-07, 03:20:05,VALID,916.34,VALID,0,VALID,85.771,VALID,0,VALID,19.9968,VALID,32,VALID,0,
2013-01-07, 03:21:05,VALID,916.342,VALID,0,VALID,85.5805,VALID,0,VALID,19.9773,VALID,28,VALID,0,
2013-01-07, 03:22:05,VALID,916.337,VALID,0,VALID,85.5119,VALID,0,VALID,20.0179,VALID,28,VALID,0,
2013-01-07, 03:23:05,VALID,916.357,VALID,0,VALID,85.832,VALID,0,VALID,19.9758,VALID,35,VALID,0,
2013-01-07, 03:24:05,VALID,916.331,VALID,0,VALID,85.5805,VALID,0,VALID,19.9578,VALID,39,VALID,0,
2013-01-07, 03:25:05,VALID,916.321,VALID,0,VALID,85.9998,VALID,0,VALID,19.9773,VALID,21,VALID,0,
2013-01-07, 03:26:05,VALID,916.372,VALID,0,VALID,85.1078,VALID,0,VALID,19.9578,VALID,42,VALID,0,
2013-01-07, 03:27:04,VALID,916.403,VALID,0,VALID,84.7038,VALID,0,VALID,19.9968,VALID,26,VALID,0,
2013-01-07, 03:28:04,VALID,916.43,VALID,0,VALID,84.8486,VALID,0,VALID,20.0358,VALID,27,VALID,0,
2013-01-07, 03:29:04,VALID,916.477,VALID,0,VALID,84.6962,VALID,0,VALID,20.0358,VALID,52,VALID,0,
2013-01-07, 03:30:04,VALID,916.451,VALID,0,VALID,85.0697,VALID,0,VALID,20.0749,VALID,52,VALID,0,
2013-01-07, 03:31:04,VALID,916.441,VALID,0,VALID,84.5056,VALID,0,VALID,20.0553,VALID,51,VALID,0,
2013-01-07, 03:32:04,VALID,916.46,VALID,0,VALID,85.3441,VALID,0,VALID,20.0959,VALID,51,VALID,0,
2013-01-07, 03:33:04,VALID,916.456,VALID,0,VALID,84.9553,VALID,0,VALID,20.0358,VALID,52,VALID,0,
2013-01-07, 03:34:04,VALID,916.448,VALID,0,VALID,84.4522,VALID,0.107441,VALID,20.0538,VALID,36,VALID,0,
2013-01-07, 03:35:04,VALID,916.439,VALID,0,VALID,84.193,VALID,0,VALID,20.0749,VALID,38,VALID,0,
2013-01-07, 03:36:04,VALID,916.46,VALID,0,VALID,84.2387,VALID,0,VALID,20.1139,VALID,43,VALID,0,
2013-01-07, 03:37:04,VALID,916.465,VALID,0,VALID,84.1625,VALID,0,VALID,20.0944,VALID,34,VALID,0,
2013-01-07, 03:38:04,VALID,916.433,VALID,0,VALID,84.0482,VALID,0,VALID,20.1139,VALID,34,VALID,0,
2013-01-07, 03:39:04,VALID,916.486,VALID,0,VALID,84.3226,VALID,0,VALID,20.1139,VALID,33,VALID,0,
2013-01-07, 03:40:04,VALID,916.47,VALID,0,VALID,84.658,VALID,0,VALID,20.0928,VALID,32,VALID,0,
2013-01-07, 03:41:04,VALID,916.436,VALID,0,VALID,85.1002,VALID,0,VALID,20.0944,VALID,32,VALID,0,
2013-01-07, 03:42:04,VALID,916.469,VALID,0,VALID,84.7724,VALID,0,VALID,20.0538,VALID,32,VALID,0,
2013-01-07, 03:43:04,VALID,916.461,VALID,0,VALID,85.4432,VALID,0,VALID,20.0749,VALID,32,VALID,0,
2013-01-07, 03:44:04,VALID,916.405,VALID,0,VALID,84.1015,VALID,0,VALID,20.0538,VALID,351,VALID,0,
2013-01-07, 03:45:04,VALID,916.389,VALID,0,VALID,83.7966,VALID,0,VALID,20.0944,VALID,350,VALID,0,
2013-01-07, 03:46:04,VALID,916.306,VALID,0,VALID,83.7127,VALID,0,VALID,20.1334,VALID,45,VALID,0,
2013-01-07, 03:47:04,VALID,916.305,VALID,0,VALID,83.2325,VALID,0,VALID,20.1739,VALID,41,VALID,0,
2013-01-07, 03:48:04,VALID,916.276,VALID,0,VALID,83.4383,VALID,0,VALID,20.1919,VALID,40,VALID,0,
2013-01-07, 03:49:04,VALID,916.285,VALID,0,VALID,83.9033,VALID,0,VALID,20.1919,VALID,40,VALID,0,
2013-01-07, 03:50:04,VALID,916.286,VALID,0,VALID,84.1473,VALID,0,VALID,20.1724,VALID,40,VALID,0,
2013-01-07, 03:51:04,VALID,916.222,VALID,0,VALID,83.85,VALID,0,VALID,20.1919,VALID,38,VALID,0,
2013-01-07, 03:52:04,VALID,916.255,VALID,0,VALID,83.667,VALID,0,VALID,20.1334,VALID,43,VALID,0,
2013-01-07, 03:53:04,VALID,916.228,VALID,0,VALID,83.5603,VALID,0,VALID,20.1529,VALID,39,VALID,0,
2013-01-07, 03:54:04,VALID,916.258,VALID,0,VALID,83.7508,VALID,0,VALID,20.1334,VALID,46,VALID,0,
2013-01-07, 03:55:04,VALID,916.257,VALID,0,VALID,82.958,VALID,0,VALID,20.1529,VALID,20,VALID,0,
2013-01-07, 03:56:04,VALID,916.255,VALID,0,VALID,83.3925,VALID,0,VALID,20.1724,VALID,22,VALID,0,
2013-01-07, 03:57:04,VALID,916.265,VALID,0,VALID,83.2858,VALID,0,VALID,20.2129,VALID,22,VALID,0,
2013-01-07, 03:58:04,VALID,916.298,VALID,0,VALID,83.4078,VALID,0,VALID,20.1724,VALID,22,VALID,0,
2013-01-07, 03:59:04,VALID,916.313,VALID,0,VALID,83.6594,VALID,0,VALID,20.1724,VALID,22,VALID,0,
2013-01-07, 04:00:04,VALID,916.345,VALID,0,VALID,84.1168,VALID,0,VALID,20.1724,VALID,22,VALID,0,
2013-01-07, 04:01:04,VALID,916.31,VALID,0,VALID,84.3836,VALID,0,VALID,20.1529,VALID,47,VALID,0,